Regional Weather Roundup
Issued by NWS Charleston, SC

Current Version | Previous Version | Text Only | Print | Product List | Glossary Off
Versions: 1 2 3 4 5 6 7 8 9 10 11 12 13 14 15 16 17 18 19 20 21 22 23 24 25 26 27 28 29 30 31 32 33 34 35 36 37 38 39 40 41 42 43 44 45 46 47 48 49 50

000
ASUS42 KCHS 270028
RWRCHS

REGIONAL WEATHER ROUNDUP
NATIONAL WEATHER SERVICE CHARLESTON SC
800 PM EDT TUE JUL 26 2016

NOTE: "FAIR" INDICATES FEW OR NO CLOUDS BELOW 12,000 FEET WITH NO
SIGNIFICANT WEATHER AND/OR OBSTRUCTIONS TO VISIBILITY.

NOT ALL STATIONS ARE QUALITY CONTROLLED. USE DATA WITH CAUTION...
ESPECIALLY DEWPOINT OBSERVATIONS.

SCZ027-030-031-034>040-042>050-270100-
...SOUTHEAST SOUTH CAROLINA...

CITY           SKY/WX    TMP DP  RH WIND       PRES   REMARKS
N CHARLESTON   PTCLDY    87  73  62 S13       29.99R HX  94
6HR MIN TEMP:  87; 6HR MAX TEMP:  97;

WATERFRONT PRK   N/A     87  77  72 S10       29.96F HX  99
MOUNT PLEASANT FAIR      86  75  70 S8        30.00R HX  95
JOHNS ISLAND   FAIR      86  77  74 S8        30.00R HX  97
PINOPOLIS        N/A     91  75  59 S6        29.89S HX 102
MONCKS CORNER  FAIR      84  70  61 SW6       29.98R
SUMMERVILLE    NOT AVBL
BEAUFORT MCAS  PTCLDY    88  74  63 S7        29.99S HX  96
6HR MIN TEMP:  88; 6HR MAX TEMP:  99;

BEAUFORT ARPT  FAIR      86  75  70 S7        29.99S HX  95
HILTON HEAD IS CLOUDY    86  77  74 S7G13     30.01S HX  97
WALTERBORO     CLEAR     88  72  58 S9        30.00R HX  94
ALLENDALE      FAIR      90  73  58 S7        29.98R HX  98

...SOUTHERN MIDLANDS AND PEE DEE...

CITY           SKY/WX    TMP DP  RH WIND       PRES   REMARKS
GEORGETOWN     FAIR      82  75  78 S6        29.99R
KINGSTREE      FAIR      88  72  58 S5        29.96S HX  94
ORANGEBURG     CLEAR     91  70  49 SW5       29.97R HX  96
6HR MIN TEMP:  91; 6HR MAX TEMP:  97;

BARNWELL       NOT AVBL
AIKEN          FAIR      90  63  40 S5        30.01S HX  90
MANNING        FAIR      88  72  58 CALM      29.97R HX  94
COLUMBIA       CLEAR     94  68  42 S9        29.95R HX  98
6HR MIN TEMP:  94; 6HR MAX TEMP: 102;

SUMTER         CLEAR     91  71  51 SW7       29.93S HX  97
6HR MIN TEMP:  91; 6HR MAX TEMP:  98;

FLORENCE       CLEAR     91  73  55 S6        29.95S HX  99
6HR MIN TEMP:  91; 6HR MAX TEMP:  97;

MYRTLE BEACH   CLEAR     88  72  58 SW14      29.99R HX  94
N MYRTLE BEACH CLEAR     85  77  77 SW13      29.98R HX  95
6HR MIN TEMP:  85; 6HR MAX TEMP:  89;


$$

GAZ063-065-086>088-099>101-113>116-118-119-134>141-150-270100-
...SOUTHEAST GEORGIA...

CITY           SKY/WX    TMP DP  RH WIND       PRES   REMARKS
SAVANNAH ARPT  PTCLDY    87  73  62 S10       30.01R HX  94
6HR MIN TEMP:  86; 6HR MAX TEMP:  96;

HUNTER AAF     PTCLDY    86  78  75 VRB7      29.99R HX  98
6HR MIN TEMP:  86; 6HR MAX TEMP:  92;

FORT STEWART   PTCLDY    87  74  67 SE1       29.98R HX  95
6HR MIN TEMP:  87; 6HR MAX TEMP:  93; 6HR PCP: TRACE;

STATESBORO     PTCLDY    88  78  72 S7        30.00R HX 101
SYLVANIA       NOT AVBL
CLAXTON        FAIR      87  77  72 CALM      30.00R HX  99

...CSRA...CENTRAL AND FAR SOUTHEAST GEORGIA...

CITY           SKY/WX    TMP DP  RH WIND       PRES   REMARKS
THOMSON        NOT AVBL
AUGUSTA-BUSH   CLEAR     93  68  43 S9        29.96R HX  97
6HR MIN TEMP:  93; 6HR MAX TEMP: 101;

AUGUSTA-DANIEL CLEAR     94  69  44 S12       29.98R HX  99
SWAINSBORO     FAIR      90  70  51 CALM      30.01R HX  95
VIDALIA        PTCLDY    90  70  51 S6        30.00R HX  95
EASTMAN        FAIR      89  61  39 SW5       30.03R
HAZLEHURST     FAIR      88  73  62 CALM      30.01R HX  96
ALMA           PTCLDY    87  72  60 SW6       30.01R HX  93
6HR MIN TEMP:  87; 6HR MAX TEMP:  96;

WAYCROSS       CLOUDY    89  76  65 W6        30.01S HX 100
JESUP          MOCLDY    88  77  70 W6        30.01R HX 100
BAXLEY         FAIR      88  77  70 SW7       30.01R HX 100
BRUNSWICK      CLEAR     88  79  74 SW10      30.03R HX 102
SAINT SIMONS   CLEAR     86  76  71 S9        30.01R HX  96
6HR MIN TEMP:  86; 6HR MAX TEMP:  92;


$$

SCZ027-028-034-036>038-045-046-048>050-GAZ119-141-270100-
...LAKE AND SUPPLEMENTAL COASTAL OBSERVATIONS...

STATION/POSITION TIME  TEMP    WIND        PRES    WAVE   SWELL
                       AIR SEA DIR/SP/G            HT/PER HT/PER/DIR
                 (UTC) (F)     (DEG/KT/KT) (MB)    (FT/S) (FT/S/D)
WINYAH BAY       2345   87     220/  9     1014.0S
LAKE MURRAY      NOT AVBL
ACE BASIN NERRS  2300   88     180/  1     1016.0S
FORT PULASKI     2300      88              1016.4
SAPELO ISLAND    0000   88     160/  9     1016.0S

$$

ANZ835-935-AMZ111-154-330-350-352-354-370-450-454-472-270100-
...C-MAN AND BUOY OBSERVATIONS...

STATION/POSITION TIME  TEMP    WIND        PRES    WAVE   SWELL
                       AIR SEA DIR/SP/G            HT/PER HT/PER/DIR
                 (UTC) (F)     (DEG/KT/KT) (MB)    (FT/S) (FT/S/D)
BUOY 41004       2350   85 86  210/ 16/ 17 1015.2S   3/ 4   2/150/ 8
BUOY 41008       2350   86 87  150/ 14/ 16 1016.1R   2/ 3
FOLLY BEACH CMAN 0000   85     210/ 17/ 19 1015.9R
CAPERS NEARSHORE 0008   85 84  220/ 16/ 21 1015.5R
FRIPP NEARSHORE  0008   86 87  210/ 16/ 21 1015.0R


STATION/POSITION TIME  TEMP    WIND        PRES    WAVE   SWELL
                       AIR SEA DIR/SP/G            HT/PER HT/PER/DIR
                 (UTC) (F)     (DEG/KT/KT) (MB)    (FT/S) (FT/S/D)
5E ST. MARYS GA  0001      86                N/A     2/ 4
FRYING PAN BUOY  0000   85 85  220/ 16/ 19 1015.5R
BUOY 41025       2350   85 85  230/ 17/ 21 1014.5R   5/ 5
CAPE LOOKOUT NC  0000   84     230/ 12/ 15 1015.0R
BUOY 41002       2350   84 84  240/ 10/ 12 1017.1S   2/ 5   2/130/ 8
BUOY 41010       2320   86 87  160/  6/  6 1018.0R
ST AUGUSTINE FL  0000   84 88  160/ 14/ 17 1017.3S


$$




USA.gov is the U.S. government's official web portal to all federal, state and local government web resources and services.